Flag for Colombia Weather past 2 weeks in Cartagena, Colombia

Now
82 °F

Overcast.


Feels Like: 88 °F
Forecast: 82 / 93 °F
Wind: No wind

Location: Cartagena / Rafael Nunez

Current Time: Oct 2, 2014 at 8:38:54 AM

Latest Report: Oct 2, 2014 at 8:00 AM


Visibility: N/A

Pressure: 29.81 "Hg

Humidity: 74%

Dew point: 73 °F

Location of CartagenaLocation

Historic Weather in Cartagena — Graph

°F

Cartagena temperature yesterday

Maximum temperature yesterday: 97 °F (at 1:00 PM)
Minimum temperature yesterday: 82 °F (at 4:00 AM)
Average temperature yesterday: 88 °F

Past Weeks' High & Low Weather Summary

 TemperatureHumidityPressure
High99 °F (Sep 29, 11:00 AM)100% (Sep 19, 4:00 AM)29.93 "Hg (Sep 19, 4:00 AM)
Low75 °F (Sep 17, 4:00 PM)50% (Sep 29, 11:00 AM)29.72 "Hg (Sep 27, 4:00 PM)
Average84 °F81%29.81 "Hg
* Reported Sep 17 7:00 AM — Oct 2 7:00 AM, Cartagena, Weather by CustomWeather, © 2014

Note: Actual official high and low records may vary slightly from our data, if they occured in-between our weather recording intervals... More about our weather records

Advertising

Cartagena weather history for previous 24 hours

 ConditionsComfort  
Time TempWeatherWind HumidityBarometerVisibility
7:00 AM
Oct 2
81 °FSunny.3 mph84%29.78 "Hg10 mi
6:00 AM81 °FBroken clouds.2 mph84%29.76 "HgN/A
5:00 AM81 °FPassing clouds.3 mph84%29.77 "HgN/A
4:00 AM81 °FPassing clouds.2 mph74%29.76 "HgN/A
3:00 AM79 °FPassing clouds.3 mph79%29.74 "HgN/A
2:00 AM81 °FPassing clouds.5 mph70%29.76 "HgN/A
1:00 AM81 °FPassing clouds.3 mph70%29.77 "HgN/A
12:00 AM81 °FPassing clouds.6 mph74%29.81 "HgN/A
11:00 PM
Oct 1
86 °FPassing clouds.10 mph84%29.81 "HgN/A
10:00 PM84 °FWarm.N/A89%29.78 "HgN/A
9:00 PM84 °FClear.5 mph89%29.75 "Hg10 mi
8:00 PM86 °FPassing clouds.7 mph84%29.76 "HgN/A
7:00 PM86 °FPassing clouds.13 mph84%29.74 "HgN/A
6:00 PM88 °FPassing clouds.9 mph79%29.74 "HgN/A
5:00 PM90 °FScattered clouds.14 mph75%29.74 "HgN/A
4:00 PM90 °FHot.7 mph79%29.73 "Hg3 mi
3:00 PM93 °FPassing clouds.15 mph67%29.74 "HgN/A
2:00 PM93 °FPassing clouds.8 mph67%29.74 "Hg6 mi
1:00 PM97 °FPassing clouds.7 mph60%29.76 "HgN/A
12:00 PM95 °FScattered clouds.9 mph63%29.79 "HgN/A
11:00 AM95 °FScattered clouds.10 mph60%29.81 "HgN/A
10:00 AM93 °FScattered clouds.8 mph67%29.81 "HgN/A
9:00 AM84 °FScattered clouds.5 mph89%29.75 "Hg3 mi
8:00 AM90 °FScattered clouds.5 mph75%29.78 "Hg4 mi
Weather by CustomWeather, © 2014

See weather overviewHow to use our weather pages